WGS 10 (USA 291) (44071 NORAD) Tracking and Keplerian Element Data

This shows tracking and keplerian element data for the satellite.

Feedback or suggestion? Click here.




ElementValue
Catalog44071
NameWGS 10 (USA 291)
Epoch Orbit1921
Epoch Day159.64911119
Epoch Year2024
RAAN30.0392
Inclination0.019
Eccentricity5.68E-05
Argument of Perigee271.8225
Mean Anonmoly248.6422
Mean Motion1.00273309
Decay Rate4.6E-07
L11 44071U 19014A 24159.64911119 .00000046 00000+0 00000+0 0 9992
L22 44071 0.0190 30.0392 0000568 271.8225 248.6422 1.00273309 19217



Live tracking and technical data element details for WGS 10 (USA 291) (NORAD 44071). WGS 10 (USA 291) can be tracked NOW for your location showing map with azimuth and elevation plus other details from your city location.







IsCatalogInMostPopularTable: catalog: 44071, numindb: 720
Update: records affected: 1



GetName: 44071 WGS 10 (USA 291)

Hit Count: updated at: Fri, 14 Jun 2024 18:12:37 GMT